Temperature
22 21 21 21 22 23 24 24 25 25 25 25 25 25 23 22 21 19 18 18 18 18 18 18 18 18 18 18 18 18 18 17 17 17 17 17 17 17 17 17 17 17 17 17 17 17 17 17 17
22 21 21 22 23 23 24 24 24 24 25 24 24 24 23 21 20 18 18 18 18 17 17 18 18 18 18 18 18 18 17 17 17 17 17 17 17 17 17 17 17 17 17 17 17 17 17 17 17
22 22 22 23 24 24 24 24 24 25 24 24 24 23 22 20 19 18 18 18 17 17 17 18 18 18 17 17 17 17 17 17 17 17 17 17 17 17 17 17 17 17 17 17 17 17 17 17 17
22 22 24 24 24 24 24 24 25 25 25 24 24 22 20 19 19 18 18 18 17 17 17 18 18 17 17 17 17 17 17 17 17 17 17 17 17 17 17 17 17 17 17 17 17 17 17 17 17
22 23 24 24 24 25 25 25 25 25 24 24 23 21 19 18 18 18 18 18 17 17 17 17 17 17 17 17 17 17 17 17 17 17 17 17 17 17 17 17 17 17 17 17 17 17 17 17 17
23 24 24 23 24 25 25 25 25 25 24 23 23 21 19 18 18 18 18 18 17 17 17 17 17 17 17 17 17 17 17 17 17 17 17 17 17 17 17 17 17 17 17 17 17 17 17 17 17
24 23 24 24 24 24 25 25 25 24 24 23 23 21 19 18 18 18 18 18 17 17 17 17 17 17 17 17 17 17 17 17 17 17 17 17 16 16 16 16 16 17 17 16 16 16 16 16 16
24 24 24 24 23 24 25 24 24 23 23 22 22 21 19 18 18 18 18 18 17 17 17 17 17 17 17 17 17 17 17 17 17 17 17 16 16 16 16 16 16 16 16 16 16 16 16 16 16
24 24 23 24 24 24 25 24 24 23 22 22 21 20 19 18 18 18 18 18 18 17 17 17 17 17 17 17 17 17 17 17 17 17 16 16 16 16 16 16 16 16 16 16 16 16 16 16 16
25 23 23 25 25 24 24 24 24 23 22 22 20 19 19 18 18 18 18 18 18 18 18 17 17 17 17 17 17 17 17 17 17 17 16 16 16 16 16 16 16 16 16 16 16 16 16 16 16
25 24 24 25 25 24 24 24 24 23 22 21 20 19 19 18 18 18 18 18 18 18 18 18 17 17 17 17 17 17 17 17 17 17 16 16 16 16 16 16 16 16 16 16 16 16 16 16 16
25 25 25 25 24 24 24 24 23 23 22 21 20 19 19 19 18 18 18 18 18 18 18 18 17 17 17 17 17 17 17 17 17 17 16 16 16 16 16 16 16 16 16 15 16 16 16 16 15
25 25 25 24 24 24 24 23 23 22 21 21 20 20 19 19 19 18 18 18 18 18 17 17 17 17 17 17 17 17 17 17 17 17 16 16 16 16 16 16 15 15 15 15 15 15 15 15 15
25 25 25 24 24 24 24 23 23 22 21 21 20 20 19 19 19 19 18 18 18 18 17 17 17 17 17 17 17 17 17 16 16 16 16 16 16 16 16 16 15 15 15 15 15 15 15 15 15
25 25 24 24 24 24 24 23 23 22 21 21 20 20 19 19 19 19 18 18 18 18 18 18 18 17 17 17 17 17 16 16 16 16 16 16 16 16 16 15 15 15 15 15 15 15 15 15 15
25 24 23 24 25 24 23 21 23 22 22 21 20 20 19 19 19 19 18 18 18 18 18 18 17 17 17 17 17 16 16 16 16 16 16 16 16 16 15 15 15 15 15 15 15 15 15 14 14
24 23 23 24 25 25 24 22 23 22 22 21 21 20 20 19 19 19 19 18 18 18 18 18 17 17 17 17 16 16 16 16 16 16 16 16 16 15 15 15 15 15 15 15 15 14 14 14 14
23 24 24 24 25 25 24 23 23 23 22 22 21 21 20 20 19 19 19 19 18 18 18 18 17 17 17 17 16 16 16 16 16 16 16 15 15 15 15 15 15 15 15 14 14 14 14 14 14
24 24 24 24 25 24 24 23 23 23 23 22 22 21 21 20 19 19 19 18 18 18 18 18 17 17 17 16 16 16 16 16 16 15 15 15 15 15 15 15 14 14 14 14 14 14 14 14 14
24 24 24 24 25 24 24 24 24 24 23 23 22 22 21 21 20 19 19 18 18 18 18 17 17 17 17 17 16 16 16 16 15 15 15 15 15 15 15 14 14 14 14 14 14 14 14 14 14
24 24 24 24 24 24 24 23 24 24 24 23 23 22 22 21 20 19 19 19 18 18 18 17 17 17 17 16 16 16 16 16 15 15 15 15 15 15 14 14 14 14 14 14 14 14 14 14 14
23 24 24 24 23 23 24 22 23 23 23 23 23 22 22 21 20 20 19 18 18 18 18 17 17 17 17 16 16 16 16 16 15 15 15 15 15 15 14 14 14 14 14 14 14 14 14 14 14
24 25 24 24 23 23 24 23 23 24 23 23 22 22 22 21 20 20 19 18 18 18 17 17 17 17 17 16 16 16 16 15 15 15 15 15 15 14 14 14 14 14 14 14 14 14 14 14 14
24 24 24 24 23 22 23 23 22 23 23 23 23 22 22 21 20 19 19 18 18 17 17 17 17 17 17 16 16 16 16 15 15 15 15 15 15 15 14 14 14 14 14 14 14 14 14 14 14
24 22 21 22 21 22 24 24 22 23 24 23 23 22 21 21 20 19 19 18 18 17 17 17 17 17 17 16 16 16 16 16 15 15 15 15 15 15 14 14 14 14 14 14 14 14 14 14 14
24 23 21 21 21 22 24 23 23 24 24 23 23 22 21 20 20 19 19 18 18 17 17 17 17 17 16 16 16 16 16 16 15 15 15 15 15 15 15 14 14 14 14 14 14 14 14 14 14
23 23 24 23 22 22 22 23 23 24 23 23 22 21 21 20 20 19 19 18 18 17 17 17 17 16 16 16 16 16 16 15 15 15 15 15 15 15 14 14 14 14 14 14 14 14 14 14 14
24 24 23 22 21 21 22 22 21 22 22 22 22 21 20 20 20 19 18 18 18 17 17 17 17 16 16 16 16 16 15 15 15 15 15 15 15 15 15 14 14 14 14 14 14 14 14 14 14
24 23 23 22 22 21 20 21 23 22 22 22 22 21 20 20 19 19 18 18 18 17 17 17 17 16 16 16 16 15 15 15 15 15 15 15 15 15 15 14 14 14 14 14 14 14 14 14 13
24 23 23 21 21 21 20 21 23 22 22 22 22 21 20 20 19 19 18 18 17 17 17 17 16 16 16 16 16 15 15 15 15 15 15 15 15 15 15 14 14 14 14 14 14 14 14 14 13
Wind_Speed
11 11 7 3 3 2 3 7 9 9 8 9 10 10 13 12 8 7 3 6 9 9 11 12 11 11 11 11 11 12 12 11 11 11 11 11 10 11 11 11 11 11 11 11 12 12 12 12 11
10 7 4 3 2 0 5 8 10 10 7 6 8 11 13 11 11 8 4 6 9 10 12 11 11 11 11 11 12 12 12 12 12 12 12 12 12 12 11 11 12 13 13 13 14 13 13 12 12
10 7 4 2 2 3 6 9 9 8 6 6 7 10 8 7 9 5 6 7 9 11 12 12 11 12 12 12 13 13 13 13 12 12 12 12 11 11 11 11 12 13 14 14 14 13 13 13 12
5 3 3 0 4 7 8 7 7 7 6 6 7 8 7 8 6 7 8 8 10 11 12 11 11 11 12 12 12 12 12 12 12 12 12 11 11 11 11 11 12 13 13 14 14 14 13 13 13
3 3 2 2 4 7 7 7 6 7 6 8 9 9 8 9 10 10 8 8 10 10 12 11 11 11 11 12 12 12 11 11 11 11 11 11 11 11 11 12 13 13 13 14 14 14 14 13 12
3 3 1 2 5 7 6 5 6 8 7 7 8 9 7 8 8 8 8 8 9 10 11 11 11 11 11 12 12 12 11 11 11 11 11 11 11 11 12 13 13 13 13 14 14 13 13 13 12
3 2 1 3 5 5 6 5 6 6 7 5 4 7 7 7 6 7 8 8 8 8 9 9 10 10 12 11 12 12 11 11 11 10 10 10 11 12 12 13 13 13 13 13 13 12 12 11 11
3 2 1 2 5 5 6 6 6 7 6 5 4 6 7 7 6 7 8 8 7 7 6 6 9 10 10 10 11 11 10 10 10 9 8 9 10 11 12 12 12 12 12 12 11 11 10 9 9
3 1 2 3 4 4 6 6 5 6 7 7 9 10 10 10 8 7 7 7 6 6 5 5 5 7 9 9 9 9 8 8 8 7 6 7 8 9 10 12 11 11 11 10 9 8 7 7 8
1 1 3 4 5 5 6 5 4 5 7 7 10 12 12 9 7 7 7 7 6 5 5 4 5 5 6 7 7 6 6 6 4 5 5 5 8 9 10 11 10 9 9 7 5 4 4 5 6
1 2 3 5 6 6 6 5 3 4 5 6 8 11 10 8 6 6 6 6 6 5 5 5 4 4 5 4 5 3 4 3 3 6 7 7 8 7 8 7 6 5 5 5 4 3 5 7 7
2 3 4 4 5 4 5 4 5 6 6 7 9 10 9 8 6 5 5 6 5 5 4 4 3 4 4 5 4 3 3 3 4 5 7 6 4 4 5 4 4 4 4 4 4 5 7 8 9
3 3 3 4 4 4 5 5 5 7 7 8 9 9 7 7 6 5 5 5 6 5 4 3 3 4 4 4 3 4 4 4 5 5 6 7 4 3 4 4 5 5 5 4 4 5 7 7 8
2 4 4 4 3 3 4 4 4 5 7 8 8 7 6 6 6 5 5 5 6 6 4 3 3 3 5 4 3 4 5 4 5 5 5 7 6 5 4 4 4 5 5 5 5 6 5 5 6
3 3 4 4 4 4 2 2 5 8 8 7 7 7 6 6 5 5 5 4 6 6 4 4 3 4 5 5 3 4 5 5 3 3 5 6 7 7 5 3 3 4 5 6 6 6 5 4 5
6 5 4 4 5 5 3 2 5 8 8 7 7 7 6 6 6 5 5 4 5 5 5 4 3 4 4 4 4 4 5 5 4 5 5 6 7 8 6 3 3 5 6 5 3 3 4 4 4
6 6 5 5 5 5 5 3 6 8 7 7 7 8 8 7 6 6 5 4 5 5 5 5 4 3 4 4 4 4 4 4 4 5 4 5 6 8 6 3 3 6 4 3 3 4 4 4 3
4 4 3 4 4 4 4 4 7 8 8 7 8 8 8 8 7 7 6 5 4 4 5 5 5 4 4 3 3 3 3 2 3 4 4 5 6 7 6 3 4 5 3 4 4 4 3 2 2
5 3 3 1 2 2 4 4 6 8 8 7 8 8 8 8 8 7 6 6 5 4 5 5 5 4 4 3 3 2 2 2 2 2 3 4 5 6 5 3 3 4 3 3 3 3 3 2 2
6 4 3 1 1 2 3 5 5 7 8 8 7 8 8 8 9 8 7 6 6 5 4 5 5 4 4 3 3 2 2 2 2 2 3 4 4 4 4 3 2 3 3 3 3 2 2 1 1
6 5 4 2 2 5 5 6 6 7 7 7 7 7 8 9 10 9 8 7 6 5 5 4 4 5 5 4 3 3 2 1 2 2 1 2 3 3 3 3 3 3 2 2 1 1 2 0 1
5 4 5 6 5 5 6 4 4 7 7 6 5 6 6 7 8 8 8 7 6 5 5 4 4 5 5 5 4 4 3 2 2 2 2 1 2 2 2 3 2 3 2 2 1 1 1 1 1
4 4 7 8 7 8 8 6 3 7 6 6 6 6 6 7 8 8 8 7 6 5 4 4 4 4 5 5 4 3 2 2 2 2 3 2 2 2 2 3 2 2 2 2 1 1 1 0 0
4 6 9 9 7 8 9 6 2 3 4 6 6 7 7 7 7 7 8 7 5 5 4 3 3 4 4 4 5 5 4 3 2 2 3 2 2 2 2 3 2 2 2 2 2 1 1 0 0
6 5 3 4 5 4 4 3 2 5 4 4 5 6 6 6 7 7 7 8 6 6 5 4 4 4 4 3 4 4 4 4 3 3 3 3 2 2 3 2 2 2 2 1 2 2 2 1 1
7 7 4 3 3 3 2 1 4 7 6 6 6 6 6 6 6 6 7 7 7 7 6 5 5 4 4 4 3 3 3 2 2 2 2 2 2 3 3 3 2 2 2 2 2 1 1 1 2
6 6 7 7 8 6 2 2 5 5 6 6 6 5 5 6 6 6 6 7 7 7 6 5 5 4 4 3 3 2 3 3 2 2 1 2 2 2 3 3 3 2 2 2 2 1 1 1 1
7 6 4 4 4 4 3 2 2 5 4 4 5 5 4 5 6 6 5 5 6 6 6 6 5 5 5 4 3 3 3 3 2 2 2 1 1 2 3 3 3 3 3 3 2 1 1 1 1
6 7 6 4 5 3 3 1 3 4 4 4 4 5 5 4 5 5 5 4 4 5 5 5 4 4 4 4 4 4 3 3 4 3 3 3 2 2 3 4 4 4 4 4 4 4 3 2 2
6 7 6 4 5 4 4 1 4 5 4 4 4 4 5 5 5 5 5 5 4 4 5 4 4 4 3 3 3 3 3 3 4 3 3 3 3 3 2 2 3 3 3 4 4 4 4 3 3
Wind_Direction
278 259 252 261 256 213 66 67 71 61 62 51 50 61 67 54 51 86 107 84 89 94 90 79 73 72 73 74 74 75 75 75 73 74 74 73 73 74 69 67 67 65 63 75 80 76 72 69 65
281 282 267 239 258 101 81 74 71 67 72 75 67 66 73 66 72 91 92 83 92 92 89 83 77 76 78 78 76 76 77 76 76 77 76 74 75 74 72 70 69 68 68 79 83 77 73 70 67
265 267 266 255 22 42 78 82 87 84 74 66 71 61 56 67 75 91 103 98 93 91 88 86 79 80 83 82 80 78 79 77 76 77 77 75 73 75 75 74 73 71 71 76 78 77 74 71 67
266 260 249 309 62 58 82 98 104 99 83 71 80 77 71 54 76 103 112 104 96 95 92 90 85 86 85 83 83 81 80 79 78 77 77 77 77 78 78 77 74 73 73 76 78 76 75 72 67
251 258 221 121 88 83 78 82 89 87 77 70 77 90 83 75 91 105 107 102 100 101 99 94 90 88 88 86 85 83 81 81 80 80 80 78 80 81 81 81 79 77 76 77 78 77 74 71 67
264 254 244 118 98 92 83 76 82 86 83 83 94 102 92 97 102 105 102 100 102 104 104 101 94 90 90 87 87 86 83 82 83 83 84 85 85 86 86 85 84 80 79 78 78 78 74 70 66
287 299 257 110 105 93 83 70 70 82 78 60 72 99 112 107 111 114 106 100 98 101 110 116 111 101 96 92 89 88 86 85 86 89 91 93 93 90 88 87 86 83 82 81 80 79 76 70 66
290 292 333 91 103 89 88 82 70 74 74 53 56 92 119 127 127 116 110 104 104 108 112 121 126 124 111 101 97 96 94 95 99 97 97 102 100 97 95 88 87 86 85 84 84 82 78 72 64
275 308 13 54 95 103 104 100 88 85 86 72 63 82 113 130 131 123 116 108 105 103 106 106 110 113 117 116 112 114 111 111 116 118 113 117 113 103 97 94 94 94 92 90 90 90 89 77 68
218 35 42 50 86 109 106 103 123 122 103 96 93 95 114 127 134 131 126 125 121 118 118 110 108 106 108 112 128 139 129 144 156 129 126 112 95 96 98 107 107 107 104 99 99 102 81 62 63
63 86 68 60 80 106 112 103 94 106 94 101 112 120 126 131 130 129 126 122 123 119 109 102 105 99 101 99 105 101 104 119 105 102 104 99 101 114 116 121 123 124 114 97 88 81 74 71 67
105 81 85 88 82 90 104 107 85 74 82 97 110 121 130 136 134 131 126 122 116 105 106 112 119 104 97 98 93 92 83 75 63 71 89 88 83 88 100 103 109 109 83 77 76 69 65 65 67
119 112 99 95 109 109 107 100 90 90 100 106 117 124 133 138 137 137 136 134 127 122 121 114 101 105 98 88 84 80 65 57 58 52 77 86 77 71 81 77 71 75 74 66 63 67 63 54 57
120 128 137 134 134 137 129 126 127 124 128 127 131 133 139 140 141 141 139 139 130 127 129 121 120 108 101 100 93 82 79 67 58 59 65 86 86 82 74 70 61 62 67 71 69 68 67 61 61
161 173 171 181 182 165 158 160 156 148 149 145 145 139 139 143 149 147 147 144 136 137 133 130 125 108 101 94 74 72 75 76 59 64 64 86 92 88 82 77 70 68 66 71 70 68 72 74 69
206 211 204 197 198 177 202 210 153 151 156 153 153 148 152 154 160 154 153 149 140 132 129 129 126 110 103 105 86 65 67 63 54 50 42 66 83 86 79 68 69 73 69 70 69 69 65 64 65
220 224 201 190 201 187 195 205 159 162 168 161 163 159 160 161 166 161 157 156 148 140 139 139 126 112 107 103 99 78 68 61 57 57 43 51 78 86 83 63 74 81 74 64 67 64 75 73 75
247 240 220 195 181 196 201 197 166 176 186 179 174 172 168 168 171 165 160 155 151 146 140 137 128 125 115 109 98 84 69 65 64 65 52 48 69 83 85 69 67 76 63 58 65 66 67 80 81
280 270 259 204 157 218 225 216 188 183 189 191 187 181 177 177 169 163 160 158 160 153 145 135 142 142 128 124 110 110 100 81 79 79 83 69 71 81 84 68 57 67 68 71 76 76 72 73 92
267 265 255 191 188 240 239 240 211 185 194 192 195 187 182 177 168 164 165 165 164 159 150 145 145 144 132 123 124 132 119 107 101 65 67 78 81 81 95 94 93 82 75 70 74 81 77 68 101
263 262 261 247 256 254 259 255 218 180 187 184 189 183 179 180 172 165 169 168 164 159 151 151 158 149 138 136 121 112 104 99 120 124 93 64 92 95 90 101 102 107 103 92 84 93 81 23 338
265 268 263 255 256 262 243 261 224 176 172 173 181 177 176 171 164 160 162 161 165 163 152 164 165 153 146 144 150 159 159 159 160 142 137 151 129 115 110 111 115 115 114 120 153 110 99 72 334
259 270 268 265 263 271 262 255 219 169 176 178 177 174 172 165 165 160 157 157 158 154 152 170 158 152 151 157 147 154 147 159 153 132 147 162 150 144 145 139 130 122 133 151 136 101 86 119 226
261 263 262 258 259 259 249 241 234 167 174 168 167 169 168 165 161 155 153 152 157 147 144 144 144 142 148 158 156 165 159 165 161 160 168 165 157 165 173 163 155 145 154 163 155 150 156 260 10
241 257 266 240 222 243 233 225 128 95 93 116 142 154 154 157 157 157 156 157 157 149 152 154 150 146 151 162 163 167 169 178 175 168 180 179 172 170 186 157 158 155 148 146 134 160 181 174 175
238 238 248 274 275 295 261 186 114 101 91 97 109 123 140 148 152 156 158 158 159 157 162 164 160 161 166 171 172 164 161 168 164 177 189 184 174 169 166 159 156 162 164 169 154 171 182 177 182
263 249 259 273 286 285 245 150 120 101 101 104 110 118 134 147 148 151 152 154 158 162 166 168 161 163 171 182 178 171 157 156 163 172 178 170 175 180 166 166 169 170 163 155 148 161 190 157 152
256 286 284 269 280 274 262 227 156 133 125 112 111 115 125 140 147 148 150 152 162 165 168 172 168 175 181 179 178 179 166 156 160 161 167 173 183 184 171 177 173 171 173 168 178 169 178 136 135
235 243 254 264 264 276 287 19 81 114 124 115 111 120 129 133 144 146 146 150 156 159 161 167 170 171 176 183 184 177 178 169 168 183 183 189 177 174 181 186 183 185 185 186 179 178 185 182 186
275 268 261 262 274 272 274 282 76 94 92 80 84 107 120 130 140 144 146 151 158 157 155 161 167 166 171 180 181 182 177 173 178 194 186 189 186 180 174 191 192 204 200 197 186 183 185 195 197
Height
1497 1498 1499 1500 1501 1502 1503 1500 1496 1498 1500 1502 1502 1503 1508 1512 1517 1528 1528 1526 1525 1524 1524 1523 1522 1522 1522 1521 1521 1521 1521 1521 1521 1522 1522 1522 1522 1523 1523 1523 1523 1521 1518 1516 1519 1523 1524 1525 1526
1498 1499 1501 1501 1503 1508 1507 1500 1501 1502 1504 1504 1505 1507 1510 1516 1521 1524 1526 1526 1526 1525 1525 1524 1524 1523 1523 1523 1523 1523 1523 1523 1523 1523 1524 1524 1524 1524 1525 1525 1524 1523 1519 1517 1521 1524 1526 1527 1527
1499 1500 1501 1499 1501 1507 1508 1502 1502 1504 1505 1505 1507 1510 1515 1521 1523 1525 1526 1527 1527 1527 1526 1526 1525 1525 1525 1525 1525 1525 1525 1525 1525 1525 1526 1526 1526 1526 1527 1527 1526 1526 1524 1524 1525 1526 1527 1528 1529
1501 1502 1501 1501 1505 1502 1501 1502 1502 1504 1506 1507 1509 1514 1520 1524 1525 1526 1527 1528 1528 1528 1527 1527 1527 1527 1527 1527 1527 1527 1527 1527 1527 1527 1528 1528 1528 1528 1528 1529 1528 1528 1528 1528 1528 1529 1529 1530 1531
1502 1501 1501 1505 1504 1501 1500 1502 1503 1505 1507 1509 1511 1517 1523 1526 1526 1527 1528 1529 1529 1529 1529 1529 1528 1528 1528 1528 1529 1529 1529 1529 1529 1530 1530 1530 1530 1530 1530 1531 1530 1531 1531 1530 1531 1531 1532 1532 1532
1503 1499 1506 1509 1505 1501 1502 1504 1505 1507 1510 1511 1514 1518 1525 1527 1527 1528 1529 1530 1530 1530 1530 1530 1530 1530 1530 1530 1531 1531 1531 1531 1531 1531 1532 1532 1532 1532 1532 1532 1532 1533 1533 1533 1533 1533 1534 1534 1534
1503 1501 1504 1504 1507 1505 1505 1506 1507 1509 1511 1514 1515 1519 1525 1527 1528 1529 1530 1531 1532 1532 1532 1532 1532 1532 1532 1532 1533 1533 1533 1533 1533 1534 1534 1534 1534 1534 1534 1534 1534 1535 1535 1535 1536 1536 1536 1536 1537
1502 1502 1503 1503 1508 1509 1506 1508 1510 1512 1514 1516 1516 1519 1525 1528 1529 1530 1531 1532 1533 1533 1534 1534 1534 1534 1534 1534 1535 1535 1535 1535 1536 1536 1536 1536 1536 1536 1536 1536 1536 1537 1537 1537 1538 1538 1539 1539 1539
1503 1505 1509 1505 1507 1508 1507 1509 1512 1514 1516 1518 1519 1521 1525 1527 1529 1531 1532 1533 1534 1535 1536 1536 1537 1537 1537 1536 1537 1537 1537 1537 1537 1538 1538 1538 1538 1538 1539 1539 1539 1539 1539 1540 1540 1541 1541 1541 1541
1502 1509 1508 1503 1503 1506 1508 1510 1512 1514 1517 1519 1522 1524 1526 1528 1530 1531 1533 1534 1535 1536 1537 1537 1538 1538 1539 1539 1538 1538 1539 1539 1539 1540 1540 1540 1541 1541 1541 1541 1541 1541 1542 1542 1542 1543 1543 1543 1543
1502 1506 1504 1504 1505 1507 1509 1511 1513 1514 1517 1520 1523 1525 1527 1529 1530 1532 1533 1535 1536 1537 1538 1539 1539 1540 1540 1540 1541 1541 1541 1541 1542 1542 1542 1542 1542 1542 1543 1543 1543 1543 1543 1544 1544 1544 1545 1545 1545
1503 1504 1505 1506 1508 1509 1510 1512 1514 1516 1520 1521 1523 1525 1528 1529 1531 1532 1534 1535 1537 1538 1539 1540 1540 1541 1541 1542 1542 1542 1542 1543 1543 1543 1544 1544 1544 1544 1544 1544 1545 1545 1545 1546 1546 1546 1547 1547 1547
1505 1506 1507 1508 1510 1511 1512 1514 1516 1519 1521 1522 1524 1526 1528 1530 1531 1533 1534 1536 1537 1538 1539 1540 1541 1542 1542 1542 1543 1543 1544 1544 1544 1545 1545 1545 1545 1546 1546 1546 1546 1547 1547 1547 1547 1548 1548 1548 1548
1505 1506 1508 1509 1510 1511 1512 1514 1517 1520 1522 1523 1525 1527 1529 1530 1532 1533 1534 1535 1537 1538 1539 1540 1541 1542 1543 1543 1544 1544 1545 1545 1545 1546 1546 1546 1547 1547 1547 1547 1547 1548 1548 1548 1548 1549 1549 1549 1549
1506 1507 1508 1509 1509 1511 1513 1516 1516 1519 1521 1523 1525 1527 1528 1530 1531 1533 1534 1535 1537 1538 1539 1540 1541 1542 1543 1544 1545 1546 1546 1546 1547 1547 1547 1548 1548 1548 1548 1548 1548 1549 1549 1549 1549 1549 1550 1550 1550
1505 1508 1513 1508 1507 1509 1515 1521 1516 1517 1520 1522 1524 1526 1528 1530 1531 1532 1534 1535 1537 1538 1539 1541 1542 1543 1543 1544 1545 1546 1547 1547 1547 1548 1548 1549 1549 1549 1549 1549 1549 1549 1549 1550 1550 1551 1551 1551 1551
1507 1512 1512 1509 1505 1506 1511 1517 1514 1516 1518 1520 1523 1525 1527 1529 1531 1532 1533 1535 1536 1538 1539 1540 1542 1543 1543 1544 1545 1546 1547 1547 1548 1548 1549 1549 1549 1549 1549 1550 1550 1550 1550 1551 1551 1551 1551 1551 1552
1511 1509 1509 1508 1505 1505 1510 1512 1512 1514 1516 1518 1521 1523 1525 1527 1529 1531 1532 1534 1536 1537 1539 1540 1541 1542 1543 1544 1545 1546 1547 1548 1548 1549 1549 1550 1550 1550 1550 1551 1551 1551 1551 1551 1552 1552 1552 1552 1553
1503 1506 1508 1505 1502 1506 1509 1509 1509 1511 1513 1515 1518 1520 1523 1525 1528 1530 1532 1533 1535 1537 1538 1539 1541 1542 1543 1544 1545 1546 1547 1548 1548 1549 1549 1550 1550 1551 1551 1551 1551 1551 1551 1552 1552 1552 1553 1553 1553
1503 1507 1508 1505 1502 1505 1507 1507 1505 1507 1509 1512 1514 1517 1519 1522 1525 1528 1530 1532 1534 1536 1537 1539 1540 1541 1542 1543 1544 1545 1547 1547 1548 1549 1549 1550 1550 1551 1551 1551 1552 1552 1552 1552 1553 1553 1553 1554 1554
1505 1507 1507 1507 1504 1503 1507 1509 1504 1503 1506 1509 1511 1514 1516 1519 1522 1525 1528 1531 1533 1535 1536 1538 1539 1540 1541 1542 1544 1545 1546 1547 1547 1548 1549 1550 1550 1551 1551 1551 1552 1552 1552 1552 1553 1554 1554 1554 1555
1508 1502 1503 1504 1510 1512 1507 1519 1506 1501 1503 1506 1509 1511 1514 1517 1520 1523 1526 1529 1531 1533 1534 1536 1538 1539 1540 1541 1543 1544 1545 1546 1547 1547 1548 1549 1550 1550 1551 1551 1552 1552 1552 1552 1553 1554 1554 1554 1554
1503 1500 1501 1502 1506 1510 1505 1511 1506 1498 1503 1504 1506 1509 1512 1515 1518 1521 1524 1526 1529 1531 1533 1535 1536 1538 1539 1540 1542 1543 1544 1545 1546 1547 1547 1548 1549 1549 1550 1551 1551 1552 1552 1552 1553 1553 1554 1554 1554
1500 1501 1501 1501 1506 1518 1504 1508 1510 1500 1500 1501 1503 1507 1510 1513 1516 1519 1522 1524 1527 1529 1531 1533 1535 1536 1537 1539 1540 1541 1543 1544 1545 1546 1546 1547 1548 1548 1549 1550 1551 1551 1552 1552 1552 1553 1553 1554 1554
1501 1510 1520 1520 1521 1516 1496 1502 1508 1497 1496 1498 1501 1505 1508 1511 1514 1517 1520 1522 1525 1527 1529 1531 1533 1534 1536 1537 1539 1540 1541 1542 1543 1544 1545 1546 1547 1547 1548 1549 1550 1550 1551 1552 1552 1552 1553 1553 1553
1501 1506 1522 1528 1523 1512 1499 1505 1502 1494 1496 1498 1501 1504 1507 1510 1513 1515 1518 1520 1523 1525 1527 1529 1531 1532 1534 1535 1537 1538 1539 1541 1542 1543 1544 1545 1545 1546 1547 1548 1549 1549 1550 1551 1551 1551 1552 1552 1552
1501 1502 1500 1509 1510 1514 1508 1501 1498 1495 1497 1499 1502 1504 1507 1509 1512 1514 1517 1519 1521 1523 1525 1527 1528 1530 1532 1533 1535 1536 1537 1539 1540 1541 1542 1543 1544 1545 1545 1546 1547 1548 1548 1549 1550 1550 1551 1551 1551
1498 1499 1503 1510 1521 1523 1512 1507 1507 1501 1501 1500 1502 1504 1507 1509 1511 1514 1516 1518 1520 1522 1524 1525 1527 1528 1530 1531 1533 1534 1536 1537 1538 1539 1540 1541 1542 1543 1544 1545 1545 1546 1547 1547 1548 1548 1549 1550 1550
1498 1501 1502 1505 1507 1519 1524 1517 1497 1499 1499 1500 1502 1504 1506 1508 1511 1513 1515 1517 1519 1521 1522 1524 1525 1527 1528 1529 1531 1532 1533 1534 1535 1537 1538 1539 1540 1541 1542 1543 1544 1544 1545 1546 1546 1547 1547 1548 1548
1495 1496 1500 1511 1512 1509 1516 1517 1495 1497 1499 1501 1503 1504 1506 1508 1510 1512 1514 1516 1518 1519 1521 1522 1524 1525 1526 1527 1528 1530 1531 1532 1533 1534 1535 1537 1538 1539 1540 1541 1542 1542 1543 1544 1545 1545 1546 1546 1547